TimeEDT,TemperatureF,Dew PointF,Humidity,Sea Level PressureIn,VisibilityMPH,Wind Direction,Wind SpeedMPH,Gust SpeedMPH,PrecipitationIn,Events,Conditions,WindDirDegrees,DateUTC
12:07 AM,75.2,75.2,100,29.83,10.0,SE,2.3,-,N/A,,Overcast,130,2013-07-01 04:07:00
12:19 AM,75.2,75.2,100,29.83,9.0,South,2.3,-,N/A,Rain,Light Rain,170,2013-07-01 04:19:00
12:24 AM,75.2,75.2,100,29.83,9.0,SSE,3.5,-,N/A,Rain,Light Rain,160,2013-07-01 04:24:00
12:34 AM,75.2,75.2,100,29.83,6.0,Calm,Calm,-,N/A,Rain,Heavy Rain,0,2013-07-01 04:34:00
12:43 AM,75.2,75.2,100,29.83,10.0,SE,2.3,-,N/A,,Overcast,130,2013-07-01 04:43:00
12:48 AM,75.2,75.2,100,29.83,10.0,SE,2.3,-,N/A,,Overcast,140,2013-07-01 04:48:00
12:53 AM,75.2,75.2,100,29.83,10.0,SSE,3.5,-,N/A,,Overcast,150,2013-07-01 04:53:00
12:58 AM,75.6,75.6,100,29.84,10.0,South,3.5,-,0.03,,Overcast,170,2013-07-01 04:58:00
1:03 AM,75.2,75.2,100,29.83,10.0,SSE,3.5,-,N/A,,Overcast,150,2013-07-01 05:03:00
1:23 AM,75.2,75.2,100,29.83,10.0,Variable,2.3,-,N/A,,Overcast,0,2013-07-01 05:23:00
1:26 AM,75.2,75.2,100,29.83,10.0,Variable,2.3,-,N/A,Rain,Light Rain,0,2013-07-01 05:26:00
1:46 AM,75.2,75.2,100,29.82,9.0,SE,3.5,-,N/A,Rain,Light Rain,140,2013-07-01 05:46:00
1:52 AM,75.2,75.2,100,29.82,10.0,SE,5.8,-,N/A,,Overcast,130,2013-07-01 05:52:00
1:58 AM,75.6,75.6,100,29.83,10.0,SE,5.8,-,0.01,,Overcast,140,2013-07-01 05:58:00
2:48 AM,75.2,75.2,100,29.82,10.0,SSE,4.6,-,N/A,,Overcast,160,2013-07-01 06:48:00
2:58 AM,75.2,75.2,100,29.82,10.0,SSE,4.6,-,N/A,,Overcast,150,2013-07-01 06:58:00
3:43 AM,75.2,75.2,100,29.82,10.0,South,4.6,-,N/A,,Overcast,170,2013-07-01 07:43:00
3:58 AM,74.7,74.7,100,29.83,10.0,South,5.8,-,N/A,,Overcast,170,2013-07-01 07:58:00
4:58 AM,74.5,74.5,100,29.83,10.0,South,4.6,-,N/A,,Overcast,190,2013-07-01 08:58:00
5:58 AM,74.5,74.5,100,29.85,10.0,South,4.6,-,N/A,,Overcast,190,2013-07-01 09:58:00
6:48 AM,73.4,73.4,100,29.85,10.0,South,4.6,-,N/A,,Overcast,190,2013-07-01 10:48:00
6:58 AM,74.3,74.3,100,29.86,10.0,South,4.6,-,N/A,,Mostly Cloudy,180,2013-07-01 10:58:00
7:23 AM,75.2,75.2,100,29.86,10.0,South,4.6,-,N/A,,Overcast,180,2013-07-01 11:23:00
7:28 AM,75.2,75.2,100,29.87,10.0,South,3.5,-,N/A,,Overcast,190,2013-07-01 11:28:00
7:33 AM,75.2,75.2,100,29.87,10.0,South,5.8,-,N/A,,Overcast,180,2013-07-01 11:33:00
7:58 AM,74.8,74.8,100,29.89,10.0,South,4.6,-,N/A,,Overcast,180,2013-07-01 11:58:00
8:58 AM,75.2,75.2,100,29.91,10.0,South,5.8,-,N/A,,Overcast,190,2013-07-01 12:58:00
9:58 AM,77.2,76.1,96,29.91,10.0,SSW,3.5,-,N/A,,Overcast,200,2013-07-01 13:58:00
10:08 AM,78.8,75.2,89,29.90,10.0,SSE,5.8,-,N/A,,Overcast,160,2013-07-01 14:08:00
10:38 AM,80.6,75.2,84,29.89,10.0,Variable,5.8,-,N/A,,Mostly Cloudy,0,2013-07-01 14:38:00
10:43 AM,80.6,75.2,84,29.89,10.0,SSE,2.3,-,N/A,,Mostly Cloudy,160,2013-07-01 14:43:00
10:53 AM,80.6,75.2,84,29.90,10.0,SSW,5.8,-,N/A,,Mostly Cloudy,210,2013-07-01 14:53:00
10:58 AM,81.0,75.7,84,29.91,10.0,SW,5.8,-,N/A,,Mostly Cloudy,220,2013-07-01 14:58:00
11:33 AM,80.6,77.0,89,29.90,10.0,SSE,6.9,-,N/A,,Mostly Cloudy,150,2013-07-01 15:33:00
11:43 AM,80.6,77.0,89,29.90,10.0,SE,6.9,-,N/A,,Mostly Cloudy,140,2013-07-01 15:43:00
11:48 AM,80.6,77.0,89,29.90,10.0,SSE,4.6,-,N/A,,Mostly Cloudy,150,2013-07-01 15:48:00
11:58 AM,81.3,75.7,83,29.91,10.0,SSE,6.9,-,N/A,,Overcast,160,2013-07-01 15:58:00
12:08 PM,82.4,75.2,79,29.90,10.0,SE,6.9,-,N/A,,Mostly Cloudy,140,2013-07-01 16:08:00
12:28 PM,80.6,75.2,84,29.90,10.0,SSE,5.8,-,N/A,,Mostly Cloudy,150,2013-07-01 16:28:00
12:58 PM,82.4,75.7,80,29.90,10.0,South,8.1,-,N/A,,Scattered Clouds,170,2013-07-01 16:58:00
1:58 PM,81.5,75.9,83,29.90,7.0,South,3.5,-,N/A,,Mostly Cloudy,180,2013-07-01 17:58:00
2:16 PM,80.6,77.0,89,29.89,3.0,SSE,4.6,-,N/A,Rain,Light Rain,150,2013-07-01 18:16:00
2:31 PM,78.8,75.2,89,29.89,9.0,SSE,8.1,-,N/A,Rain,Light Rain,150,2013-07-01 18:31:00
2:41 PM,77.0,75.2,94,29.89,10.0,SSE,5.8,-,N/A,Rain,Light Rain,150,2013-07-01 18:41:00
2:56 PM,75.2,75.2,100,29.89,8.0,South,5.8,-,N/A,Rain,Light Rain,170,2013-07-01 18:56:00
2:58 PM,75.9,75.0,97,29.90,8.0,South,5.8,-,0.01,Rain,Light Rain,180,2013-07-01 18:58:00
3:03 PM,75.2,75.2,100,29.89,7.0,South,2.3,-,N/A,Rain,Light Rain,180,2013-07-01 19:03:00
3:19 PM,77.0,77.0,100,29.89,10.0,SE,6.9,-,N/A,,Partly Cloudy,130,2013-07-01 19:19:00
3:58 PM,77.0,76.5,98,29.91,10.0,South,5.8,-,0.01,,Overcast,190,2013-07-01 19:58:00
4:58 PM,76.5,75.6,97,29.92,10.0,SE,5.8,-,N/A,,Mostly Cloudy,130,2013-07-01 20:58:00
5:13 PM,77.0,75.2,94,29.91,10.0,SE,6.9,-,N/A,,Overcast,130,2013-07-01 21:13:00
5:25 PM,75.2,75.2,100,29.90,10.0,SE,6.9,-,N/A,,Light Drizzle,130,2013-07-01 21:25:00
5:35 PM,75.2,75.2,100,29.90,10.0,SE,5.8,-,N/A,,Light Drizzle,140,2013-07-01 21:35:00
5:38 PM,75.2,75.2,100,29.90,10.0,SE,5.8,-,N/A,,Overcast,140,2013-07-01 21:38:00
5:58 PM,75.7,75.7,100,29.91,10.0,SSE,5.8,-,0.00,,Mostly Cloudy,150,2013-07-01 21:58:00
6:13 PM,75.2,75.2,100,29.90,10.0,SSE,9.2,-,N/A,,Mostly Cloudy,150,2013-07-01 22:13:00
6:18 PM,75.2,75.2,100,29.90,10.0,SSE,5.8,-,N/A,,Scattered Clouds,150,2013-07-01 22:18:00
6:33 PM,75.2,75.2,100,29.90,10.0,South,6.9,-,N/A,,Mostly Cloudy,180,2013-07-01 22:33:00
6:43 PM,75.2,75.2,100,29.91,10.0,South,5.8,-,N/A,,Mostly Cloudy,180,2013-07-01 22:43:00
6:58 PM,75.7,75.2,98,29.93,10.0,Variable,5.8,-,N/A,,Overcast,0,2013-07-01 22:58:00
7:58 PM,75.4,75.2,99,29.95,10.0,South,5.8,-,N/A,,Mostly Cloudy,180,2013-07-01 23:58:00
8:08 PM,75.2,75.2,100,29.95,10.0,SSE,8.1,-,N/A,,Mostly Cloudy,160,2013-07-02 00:08:00
8:58 PM,74.7,73.8,97,29.97,10.0,South,8.1,-,N/A,,Mostly Cloudy,180,2013-07-02 00:58:00
9:58 PM,74.1,73.6,98,29.98,10.0,South,5.8,-,N/A,,Scattered Clouds,170,2013-07-02 01:58:00
10:58 PM,73.8,73.4,99,29.99,10.0,South,3.5,-,N/A,,Mostly Cloudy,180,2013-07-02 02:58:00
11:13 PM,73.4,73.4,100,29.99,10.0,SSW,2.3,-,N/A,,Mostly Cloudy,200,2013-07-02 03:13:00
11:14 PM,73.4,73.4,100,29.99,10.0,SSW,2.3,-,N/A,,Light Drizzle,200,2013-07-02 03:14:00
11:54 PM,73.4,73.4,100,30.01,10.0,South,2.3,-,N/A,Rain,Light Rain,170,2013-07-02 03:54:00
11:58 PM,73.6,73.6,100,30.02,10.0,SSE,2.3,-,0.00,Rain,Light Rain,160,2013-07-02 03:58:00